Location: Newark
(45.4041°N, 17.9426°E)
Time: 17:01:29
(UTC+00:00)

N. Korean satellite - Visible Passes

Search period start: 22 September 2019 00:00
Search period end: 02 October 2019 00:00
Orbit: 455 x 509 km, 97.2° (Epoch: 21 September)

Date Brightness Start Highest point End Pass type
(mag) Time Alt. Az. Time Alt. Az. Time Alt. Az.
23 Sep 10.1 03:45:18 10° ENE 03:46:49 12° E 03:48:20 10° ESE visible
26 Sep 9.7 04:02:02 10° NE 04:04:39 20° E 04:07:16 10° SE visible
27 Sep 10.6 03:38:50 10° E 03:39:13 10° E 03:39:35 10° E visible
30 Sep 9.8 03:54:44 10° NE 03:57:02 17° E 03:59:21 10° SE visible
